TimePDT,TemperatureF,Dew PointF,Humidity,Sea Level PressureIn,VisibilityMPH,Wind Direction,Wind SpeedMPH,Gust SpeedMPH,PrecipitationIn,Events,Conditions,WindDirDegrees,DateUTC
12:53 AM,53.1,41.0,64,29.96,10.0,WSW,10.4,-,N/A,,Clear,240,2013-05-27 07:53:00
1:53 AM,48.9,42.1,77,29.96,10.0,SSE,6.9,-,N/A,,Clear,160,2013-05-27 08:53:00
2:53 AM,48.0,41.0,77,29.95,10.0,SW,4.6,-,N/A,,Clear,220,2013-05-27 09:53:00
3:53 AM,45.0,39.9,82,29.94,10.0,South,6.9,-,N/A,,Clear,170,2013-05-27 10:53:00
4:53 AM,44.1,39.9,85,29.93,10.0,SSE,8.1,-,N/A,,Clear,150,2013-05-27 11:53:00
5:53 AM,44.1,41.0,89,29.91,10.0,ESE,5.8,-,N/A,,Clear,110,2013-05-27 12:53:00
6:53 AM,50.0,43.0,77,29.89,10.0,SE,6.9,-,N/A,,Clear,130,2013-05-27 13:53:00
7:53 AM,53.1,43.0,69,29.87,10.0,SE,4.6,-,N/A,,Clear,140,2013-05-27 14:53:00
8:53 AM,57.9,44.1,60,29.84,10.0,Calm,Calm,-,N/A,,Clear,0,2013-05-27 15:53:00
9:53 AM,62.1,45.0,53,29.83,10.0,Calm,Calm,-,N/A,,Clear,0,2013-05-27 16:53:00
10:53 AM,64.0,44.1,48,29.82,10.0,West,11.5,-,N/A,,Mostly Cloudy,270,2013-05-27 17:53:00
11:53 AM,60.1,46.0,60,29.83,10.0,WNW,16.1,-,N/A,,Overcast,290,2013-05-27 18:53:00
12:53 PM,55.9,48.0,75,29.83,10.0,West,10.4,-,0.02,Rain,Light Rain,270,2013-05-27 19:53:00
1:53 PM,57.9,51.1,78,29.83,10.0,West,5.8,-,0.01,Rain,Light Rain,270,2013-05-27 20:53:00
2:53 PM,57.9,51.1,78,29.82,8.0,WNW,3.5,-,0.01,Rain,Light Rain,290,2013-05-27 21:53:00
3:53 PM,57.9,52.0,81,29.81,10.0,Calm,Calm,-,0.04,Rain,Light Rain,0,2013-05-27 22:53:00
4:53 PM,57.9,51.1,78,29.81,10.0,Variable,3.5,-,0.00,Rain,Light Rain,0,2013-05-27 23:53:00
5:53 PM,59.0,51.1,75,29.79,10.0,Calm,Calm,-,0.00,,Overcast,0,2013-05-28 00:53:00
6:53 PM,57.0,52.0,83,29.77,10.0,SE,5.8,-,0.00,Rain,Light Rain,130,2013-05-28 01:53:00
7:53 PM,57.0,51.1,81,29.75,10.0,ESE,6.9,-,0.00,,Mostly Cloudy,110,2013-05-28 02:53:00
8:53 PM,54.0,50.0,86,29.74,10.0,East,8.1,-,N/A,,Mostly Cloudy,90,2013-05-28 03:53:00
9:53 PM,53.1,50.0,89,29.74,10.0,East,8.1,-,N/A,,Overcast,80,2013-05-28 04:53:00
10:53 PM,54.0,51.1,90,29.77,9.0,WSW,10.4,-,0.00,Rain,Light Rain,250,2013-05-28 05:53:00
11:10 PM,52.0,50.0,93,29.79,10.0,WNW,16.1,-,0.01,Rain,Light Rain,290,2013-05-28 06:10:00
11:53 PM,51.1,48.9,92,29.78,10.0,WSW,5.8,-,0.01,,Overcast,240,2013-05-28 06:53:00